Theta_e
323 323 324 324 325 326 326 326 326 326 326 326 325 326 327 327 328 328 328 329 328 328 329 329 329 329 329 329 328 328 325 328 316 313 310 313 327 328 329 332 333 333 332 320 317 313 312 313 312 313 313 314 316 311 313 315 311 312 307 303 302 301 299 302 301 302 304 302 304 304 305 303 301 304 305 307 305 304 306 305 306 308 306 307 309 310 310 308
323 323 324 324 325 325 325 325 325 326 326 326 326 326 327 327 327 328 328 329 329 328 328 328 329 329 329 329 327 326 326 328 315 314 310 319 327 328 331 331 332 330 327 314 311 310 310 310 310 311 311 309 315 310 313 312 312 308 305 303 300 302 301 304 303 304 303 302 304 304 305 302 302 303 304 302 303 304 302 303 304 303 304 306 308 308 306 307
323 323 323 324 324 324 324 324 324 326 326 326 326 327 327 327 327 328 328 329 328 328 328 328 329 329 328 327 326 325 327 323 314 309 315 329 327 328 329 330 330 326 320 310 312 311 309 309 310 310 311 308 312 308 310 310 308 309 303 301 301 303 303 304 304 304 305 304 303 303 304 303 303 303 305 301 301 303 300 299 301 301 301 304 305 305 305 305
322 323 323 323 323 323 323 323 324 325 324 325 326 327 327 326 327 328 328 328 328 327 327 328 328 328 327 326 324 329 328 325 308 311 315 326 326 327 328 329 326 322 317 314 311 312 311 312 311 311 309 308 310 310 307 309 307 308 303 302 302 303 303 303 304 304 304 305 303 302 303 302 303 303 303 301 301 300 301 302 300 299 301 303 303 303 303 303
322 322 322 323 322 322 323 322 324 324 325 326 326 327 327 326 328 327 328 328 328 327 327 328 329 327 326 324 323 328 322 310 307 314 315 324 327 328 327 328 324 317 312 312 311 312 313 311 311 310 310 304 308 308 306 308 306 304 303 305 304 304 303 303 304 304 303 304 303 302 301 300 304 304 302 302 298 297 300 302 302 302 303 301 301 301 302 301
322 322 321 322 321 321 321 322 323 324 325 326 326 327 327 327 327 326 326 327 327 327 328 328 328 327 325 320 327 328 315 301 311 316 323 323 325 327 326 325 325 319 315 313 312 313 312 311 310 308 305 304 304 303 305 305 305 300 304 304 304 304 302 303 304 303 303 302 301 301 302 303 302 301 303 302 300 301 304 303 303 303 302 301 301 301 300 300
321 321 321 320 320 320 320 321 322 323 325 326 327 327 328 328 327 326 325 326 327 327 328 328 328 327 324 322 325 324 312 310 314 320 322 322 325 326 325 326 328 317 315 312 312 311 310 309 307 306 304 304 305 303 305 304 306 302 301 303 302 303 302 303 303 303 302 301 301 302 304 301 301 298 302 301 302 303 304 304 304 302 301 301 299 299 298 298
320 320 320 319 319 319 320 322 323 323 324 326 326 327 327 328 326 325 325 326 327 328 328 328 327 326 324 327 330 313 313 309 313 317 320 322 317 316 323 319 315 316 313 310 311 310 309 308 304 306 305 302 304 303 305 303 304 302 302 303 302 302 302 303 303 302 302 302 303 303 300 301 301 301 302 300 302 303 303 303 301 300 300 299 298 298 298 298
320 319 319 318 318 318 319 321 322 322 324 325 326 326 327 327 325 325 325 326 327 328 328 327 326 324 323 325 316 310 308 316 313 314 317 314 312 313 319 315 315 312 311 312 312 312 311 307 307 306 301 303 305 302 304 300 300 302 302 302 302 302 302 303 302 302 301 302 302 301 301 301 302 303 300 301 302 303 302 301 299 299 298 298 297 297 297 297
320 319 319 318 318 318 319 320 320 322 324 325 326 326 327 325 324 324 325 326 327 328 327 327 325 321 326 323 314 307 314 312 314 316 314 313 313 314 315 316 314 313 311 311 312 310 308 308 307 308 308 305 305 301 304 301 300 302 302 301 301 302 301 302 301 302 301 300 301 299 299 300 302 300 297 302 302 302 300 299 299 298 297 297 297 297 297 297
319 319 319 319 318 319 319 319 320 322 323 324 324 326 325 324 324 324 326 327 328 327 327 326 324 324 322 316 310 306 319 316 316 317 314 315 315 312 314 314 313 315 311 312 312 310 310 309 310 308 306 303 302 302 302 302 303 302 301 300 301 302 302 301 302 301 302 299 300 300 299 301 301 301 298 301 302 302 299 297 297 297 297 296 296 296 297 296
319 319 319 319 318 318 318 319 320 321 322 323 324 324 323 323 323 324 326 327 328 327 326 324 321 323 318 313 310 310 313 314 314 316 317 315 315 315 315 312 314 315 312 310 313 313 312 312 310 306 301 306 301 303 302 303 302 301 300 298 300 300 298 301 300 300 301 298 301 301 299 296 298 297 300 302 302 301 298 297 296 296 296 296 296 296 295 295
318 318 318 318 318 317 318 318 319 320 321 322 323 323 323 323 323 324 326 327 328 326 324 322 322 328 322 307 309 317 314 314 313 312 317 316 314 313 315 315 314 314 313 312 312 313 312 310 310 305 307 303 302 298 302 301 301 301 300 298 298 297 297 299 301 301 300 298 300 300 290 295 297 299 302 302 301 299 296 295 295 295 295 295 295 295 295 296
318 317 317 318 317 317 318 319 319 321 322 323 324 323 322 322 323 325 327 326 326 324 321 321 326 326 313 306 314 316 314 316 313 315 315 316 315 318 316 315 315 313 316 313 311 313 312 308 308 307 307 303 300 308 301 300 301 298 299 298 297 296 295 300 300 300 298 300 300 299 290 293 297 299 301 301 300 297 294 294 294 294 294 294 294 294 294 294
317 316 317 317 317 317 317 318 319 320 322 322 323 323 321 321 323 326 327 326 325 325 323 321 330 322 310 308 314 318 320 313 313 315 316 312 312 315 315 312 313 312 310 311 313 310 309 310 308 304 302 305 305 300 299 299 300 299 296 294 299 295 295 298 300 299 296 299 301 297 291 292 295 299 299 300 298 296 293 293 293 293 293 293 293 293 293 294
317 316 316 317 317 316 316 317 318 319 320 322 321 320 320 321 323 327 325 326 322 322 327 331 319 319 308 304 313 320 319 312 311 316 316 313 313 311 312 311 311 312 310 309 309 307 308 310 305 304 302 303 301 298 298 298 298 298 296 294 294 295 294 294 298 300 299 298 299 297 290 294 295 299 298 298 296 295 293 293 293 292 293 293 292 293 293 293
316 316 316 316 317 316 316 317 317 319 320 320 320 320 320 321 321 325 325 326 323 326 330 315 314 313 306 311 312 310 309 313 318 317 315 313 311 311 309 311 309 309 310 308 308 307 307 304 304 305 302 300 300 299 294 292 295 297 297 293 295 291 293 291 296 298 300 297 293 296 294 295 296 297 296 297 296 294 292 292 292 292 292 292 292 292 291 291
316 316 316 316 316 316 316 316 318 318 320 319 318 321 322 323 318 322 326 327 323 321 318 318 319 312 304 313 305 307 312 311 316 313 314 313 310 310 308 305 308 307 308 306 307 304 306 300 304 298 300 300 298 295 292 288 292 291 292 291 291 292 292 291 292 295 297 297 293 294 294 294 295 295 296 295 295 294 292 291 291 291 291 291 291 291 291 291
316 316 316 316 315 315 316 317 318 319 319 319 323 325 324 321 324 323 315 315 316 314 309 310 308 304 303 305 310 310 312 313 313 311 309 309 311 311 308 308 307 305 304 302 303 303 302 301 305 301 296 296 294 295 293 294 293 292 292 291 290 289 291 292 295 297 296 293 292 293 291 292 294 294 294 294 294 293 292 292 291 291 291 290 290 290 290 291
316 316 316 315 315 315 316 317 319 318 319 320 324 326 323 308 312 313 311 312 308 308 308 309 308 307 309 309 310 313 314 313 306 311 311 311 309 307 305 305 307 307 302 299 300 302 301 295 294 294 296 294 295 296 295 295 294 292 292 292 291 291 292 295 296 296 297 293 292 292 292 292 293 294 293 293 293 292 291 290 290 290 290 289 289 289 290 290
315 315 315 315 314 315 316 317 318 318 318 323 323 309 301 301 301 300 301 305 308 311 307 309 307 306 307 309 313 309 305 306 307 308 309 309 307 303 302 303 303 301 302 299 299 300 300 296 297 298 294 294 295 296 295 294 294 293 292 292 291 293 290 295 294 296 297 291 290 293 291 292 293 294 293 293 292 290 289 289 289 289 289 289 289 289 289 290
315 314 315 314 314 315 316 317 317 317 318 323 315 306 306 303 308 310 304 303 311 309 310 310 307 307 311 310 310 309 307 304 307 307 313 309 305 302 303 301 299 298 301 300 300 300 296 294 297 295 295 295 296 295 295 293 292 294 291 292 291 291 294 294 295 296 295 292 290 292 290 291 292 293 294 292 291 290 290 289 289 288 288 288 289 289 289 289
314 314 314 313 314 315 316 316 316 315 319 315 311 313 310 312 313 313 310 305 304 313 308 309 308 307 308 308 308 307 304 301 300 305 304 308 304 301 301 298 298 298 299 299 294 293 290 296 294 295 296 294 294 294 294 294 295 293 293 292 289 292 290 287 293 293 293 292 289 291 289 290 292 293 292 292 291 290 291 290 290 289 288 288 288 289 288 288
314 314 313 313 314 314 315 316 315 316 314 312 310 308 313 313 314 311 309 305 304 307 308 307 307 309 308 305 307 305 302 302 300 300 307 306 300 301 301 298 296 298 297 295 294 292 292 295 294 295 296 294 293 295 294 293 291 294 294 292 291 291 290 290 289 292 292 293 293 291 288 288 291 289 288 291 292 290 289 289 289 289 290 290 290 290 290 288
314 313 313 313 313 314 314 314 314 311 311 313 307 310 311 313 312 313 306 304 305 305 310 311 312 312 308 310 310 303 303 301 302 303 306 305 299 300 298 298 296 297 298 296 293 293 293 295 297 294 296 295 295 292 293 294 289 290 294 292 291 290 289 290 291 289 288 287 291 288 281 283 289 289 289 290 290 288 289 288 287 288 288 289 288 288 289 290
313 312 312 312 313 313 313 315 315 313 313 309 311 311 311 312 312 312 304 298 297 304 307 302 313 305 313 305 309 306 301 299 301 304 303 304 304 297 299 299 297 294 295 294 293 293 292 294 296 296 295 296 295 293 295 293 289 288 289 290 291 290 290 289 288 288 283 281 288 290 280 278 287 287 289 289 288 286 287 287 287 287 287 287 287 288 288 288
313 312 312 312 312 313 314 308 311 314 312 314 310 312 311 310 313 310 302 299 294 304 302 306 306 306 309 306 305 303 296 299 302 303 303 304 298 305 295 298 296 297 296 296 291 290 291 293 294 294 293 293 292 290 296 293 290 286 290 292 289 290 288 288 288 287 285 290 290 289 286 280 280 286 291 288 287 285 285 286 286 287 287 286 287 287 288 288
312 312 312 312 312 312 310 312 312 310 302 311 312 310 310 311 311 311 302 288 287 305 301 302 306 310 308 304 304 300 300 302 298 297 299 301 302 299 296 295 295 294 294 292 285 296 292 293 292 293 292 290 290 294 293 295 290 289 290 290 289 288 288 289 288 287 287 284 280 285 288 281 281 287 291 288 284 284 284 284 285 286 286 286 287 287 287 287
312 311 311 311 311 311 315 313 311 310 310 308 310 309 310 311 309 304 297 285 304 302 308 302 310 306 304 304 300 301 300 302 299 297 300 300 302 298 295 296 294 294 294 292 288 293 293 292 293 293 290 288 292 291 293 294 289 291 291 292 292 291 291 291 287 286 285 281 277 282 286 279 280 287 287 289 286 285 284 284 285 285 286 286 286 287 287 287
311 311 311 311 312 316 315 313 310 310 310 310 307 309 310 308 306 297 293 285 305 296 301 303 303 301 303 300 301 299 298 299 299 299 298 297 298 302 294 296 295 293 292 293 292 293 293 295 294 291 291 294 291 290 293 290 290 291 292 291 290 290 289 288 287 285 282 277 279 284 285 283 276 284 285 285 285 284 284 284 285 286 286 286 286 286 286 286
310 311 310 310 312 312 308 308 309 310 308 309 309 308 309 307 297 292 284 294 299 302 301 300 299 303 299 299 298 300 301 300 299 298 297 295 295 296 294 292 295 291 289 290 290 293 292 293 293 294 295 293 293 291 293 293 293 291 289 287 286 286 287 285 284 285 277 276 282 285 284 283 274 280 284 285 284 284 284 282 283 284 284 285 286 286 286 286
310 309 308 311 311 311 306 309 310 309 309 308 308 304 303 294 299 287 289 299 292 300 298 299 300 300 299 299 296 297 298 300 299 296 295 294 294 294 294 291 292 288 289 288 287 288 287 289 292 294 293 293 292 290 292 292 292 290 288 287 281 278 280 277 281 275 277 276 282 282 282 277 278 282 284 283 284 284 284 284 284 284 284 285 285 286 286 287
310 309 307 309 310 311 310 312 312 310 309 306 306 305 298 294 285 295 294 299 294 302 298 301 300 299 299 296 296 299 296 294 297 294 294 293 291 294 292 291 292 290 285 289 287 287 288 289 290 291 291 294 294 286 288 287 289 287 285 283 279 276 275 272 275 279 278 282 283 281 282 275 280 283 287 284 284 285 285 285 285 285 284 284 285 285 286 286
310 308 311 310 310 312 312 311 311 310 306 306 304 299 297 289 287 297 298 299 299 299 299 299 297 297 295 294 298 297 294 298 296 293 292 291 290 291 291 290 290 289 289 287 284 285 283 285 287 288 286 293 292 291 287 287 285 285 288 283 281 279 275 270 274 272 274 276 279 283 275 274 276 280 286 284 285 285 286 286 286 286 286 286 286 286 286 285
309 310 311 311 309 310 310 311 311 311 309 305 296 296 290 289 292 293 295 297 300 298 296 298 297 297 296 296 297 294 296 294 294 292 291 290 289 290 291 290 291 291 292 284 288 286 285 285 289 290 290 290 289 290 289 288 286 286 287 287 281 279 283 275 278 275 274 273 273 276 275 281 280 286 286 285 285 285 285 285 285 284 285 285 284 284 284 285
310 312 310 310 311 312 311 311 311 310 309 299 293 290 290 293 290 297 295 300 299 296 298 297 297 293 293 295 295 294 296 292 293 290 291 290 292 291 294 292 290 291 289 286 290 285 286 283 287 288 289 286 286 288 288 290 280 284 284 280 282 285 283 278 277 280 276 275 272 278 278 282 286 285 284 285 284 284 285 284 284 284 284 284 284 284 284 284
308 310 308 312 311 313 311 312 311 308 307 299 292 289 295 294 300 300 301 297 298 299 297 290 293 292 292 292 294 292 291 291 291 290 289 291 289 291 290 291 293 292 293 292 287 294 283 285 286 287 284 287 288 287 289 288 290 285 279 282 284 286 282 277 270 274 272 270 272 277 274 276 278 274 283 283 282 283 283 283 283 284 284 283 283 283 284 284
307 307 306 308 314 313 312 312 311 309 305 293 289 292 300 296 300 299 303 298 297 298 294 292 293 297 291 293 293 293 292 290 292 289 289 291 289 295 291 289 291 292 291 291 287 287 288 280 286 287 287 287 287 287 285 287 289 284 281 286 278 273 273 278 273 266 268 269 271 275 276 276 277 277 281 281 281 281 282 282 282 282 282 282 283 283 284 284
307 302 304 310 313 312 312 312 310 306 295 290 290 290 297 297 301 300 301 301 301 298 292 295 293 297 295 292 294 292 292 289 293 289 287 291 287 292 291 292 289 289 289 290 286 288 289 279 280 284 284 285 285 285 279 282 285 285 286 281 286 279 276 273 276 274 274 268 270 271 276 271 280 280 281 281 281 281 281 281 281 282 282 282 282 283 283 283
302 297 301 308 311 312 312 311 306 300 292 287 292 294 302 296 297 301 301 300 298 296 294 294 297 293 295 295 295 292 295 292 291 292 290 293 291 293 291 293 290 287 288 289 287 291 283 285 276 282 284 283 279 283 280 284 279 280 279 278 279 279 280 278 277 273 272 269 269 268 267 274 279 281 281 281 281 281 281 281 281 282 282 283 283 283 283 284
305 299 301 308 311 312 311 308 298 292 292 294 297 297 299 296 299 298 299 301 302 302 297 297 296 293 295 293 293 295 292 293 291 290 291 291 291 288 292 291 290 285 287 285 284 286 281 282 277 280 278 278 281 284 284 283 284 282 280 277 278 276 273 271 269 277 272 271 268 268 266 274 282 284 283 283 282 282 283 282 281 282 282 282 283 283 283 283
299 295 299 309 311 311 306 294 294 297 294 293 294 297 295 300 298 299 299 300 300 297 300 296 297 296 295 294 295 295 293 291 292 289 291 289 293 292 291 293 290 289 285 282 283 287 283 281 281 278 280 280 282 282 283 284 283 283 281 278 281 279 278 273 268 272 273 274 274 272 269 270 282 283 284 284 283 283 283 283 281 282 282 283 283 283 284 284
298 300 303 308 310 308 303 295 298 296 293 297 302 300 302 299 296 299 297 299 295 298 297 296 295 294 295 294 294 293 294 290 291 290 291 291 291 286 290 291 290 288 288 282 283 282 287 279 276 279 282 279 281 282 284 284 283 280 280 281 279 277 278 275 275 275 272 273 271 271 268 272 281 284 284 284 284 284 284 283 282 282 282 283 283 283 283 283
300 301 300 307 309 306 299 292 293 294 294 298 298 297 302 298 298 298 297 298 296 297 295 294 296 296 294 297 294 291 295 286 292 291 290 290 288 285 289 289 289 285 286 283 282 285 278 281 277 274 275 277 276 278 279 281 281 278 277 279 281 281 280 279 278 277 270 272 272 270 265 270 281 283 285 284 284 283 282 283 283 281 282 282 283 283 283 283
301 303 302 301 304 303 295 298 298 297 295 295 295 294 295 296 299 299 298 297 299 298 297 294 296 296 294 296 294 293 293 292 289 292 289 288 286 284 285 287 284 284 286 284 287 290 282 280 278 272 271 269 270 270 272 273 275 277 279 279 280 278 277 275 271 273 269 273 273 269 269 276 281 283 282 283 283 282 283 282 283 283 282 282 282 282 282 283
297 294 296 296 299 298 298 300 298 298 297 297 295 296 297 294 298 300 300 298 300 299 298 297 294 296 294 290 289 289 289 292 290 287 285 285 281 282 282 283 282 284 284 286 284 285 280 281 280 279 277 276 278 277 277 280 278 273 276 278 278 279 279 277 276 272 269 271 271 274 275 275 277 279 280 281 282 281 281 281 281 281 282 282 282 282 282 282
304 297 294 288 296 295 294 297 296 297 293 299 293 297 295 295 298 297 301 294 299 298 297 297 294 291 291 289 288 288 289 288 289 287 286 284 283 280 284 283 283 283 284 285 285 283 280 276 278 279 279 279 280 279 279 279 275 276 276 276 278 278 278 275 272 270 275 272 267 274 276 274 275 279 280 281 281 281 281 281 281 281 281 281 281 282 283 282
294 300 302 301 297 291 289 291 295 295 297 297 294 299 296 296 296 293 298 298 298 299 294 295 295 294 293 290 289 286 288 287 286 284 286 284 281 281 279 284 281 284 284 283 286 281 278 275 279 278 277 279 280 279 280 278 278 277 277 277 276 277 277 274 274 276 275 271 268 274 275 274 276 279 281 281 281 281 280 281 281 282 282 282 281 281 280 280
303 300 301 305 297 300 297 296 296 295 295 296 295 296 295 295 294 297 296 293 294 292 296 289 292 292 292 293 291 287 288 282 283 285 285 282 282 279 279 279 283 282 283 280 282 283 279 276 278 279 277 278 279 279 279 277 277 277 277 277 277 277 276 276 276 276 275 274 275 275 275 275 278 279 281 281 282 282 281 282 282 281 281 281 281 280 280 280
297 297 294 298 301 300 302 299 297 295 293 296 292 294 295 295 294 297 298 295 289 291 296 292 293 293 292 292 292 288 289 289 289 286 285 282 281 282 280 281 279 281 282 279 280 281 278 273 277 275 274 275 277 278 278 277 276 275 277 278 277 277 276 277 276 277 277 275 276 276 275 274 279 282 282 283 283 282 282 281 280 281 281 280 280 279 279 280
307 307 303 298 294 297 299 299 296 294 292 294 293 294 295 295 294 298 297 299 296 293 293 291 294 294 294 292 291 290 293 291 288 287 285 285 281 284 281 281 283 279 280 278 280 277 280 274 279 276 273 273 277 277 277 277 277 276 275 276 276 275 274 275 275 277 275 273 275 275 273 274 279 282 282 282 281 281 279 280 280 280 281 280 279 279 279 279
308 305 307 304 295 298 296 297 296 295 290 295 295 295 294 295 297 298 294 299 298 299 298 295 295 293 291 291 289 290 292 287 285 286 287 286 287 286 287 284 284 281 279 278 281 276 279 275 274 275 271 272 275 277 274 274 273 270 271 275 276 277 277 277 278 278 278 278 274 272 273 279 280 281 279 279 280 280 280 280 280 280 280 280 279 279 279 278
Wind_Speed
20 19 19 19 19 18 18 16 15 14 13 13 13 13 13 13 13 14 14 12 13 13 13 13 13 11 9 9 10 10 11 3 12 13 15 6 6 13 15 15 14 15 14 10 9 4 4 2 2 1 4 5 2 2 2 0 3 3 4 4 2 4 4 3 2 3 7 9 8 9 9 8 10 9 7 8 6 9 0 11 10 9 13 13 14 14 13 13
19 19 19 20 19 19 19 18 16 14 13 13 13 13 13 13 13 13 13 12 11 12 12 11 11 10 8 7 8 8 7 3 11 15 10 4 8 12 14 15 13 12 13 7 8 8 7 5 5 7 5 4 3 1 1 1 1 4 4 4 4 4 5 2 1 4 8 9 10 9 7 6 8 9 8 7 9 9 11 11 12 14 15 14 15 14 15 15
19 19 20 20 21 20 20 19 18 15 14 13 12 13 14 12 11 12 13 12 11 11 11 11 10 9 8 6 7 4 3 4 3 13 8 7 11 12 13 13 11 12 6 6 6 6 7 7 7 8 4 5 2 0 2 1 3 0 4 3 6 4 3 1 1 5 8 11 11 10 8 8 4 7 7 5 6 11 13 11 13 15 18 17 16 16 15 16
21 20 21 21 21 22 21 20 19 17 16 15 14 13 14 15 15 13 13 13 11 11 11 9 8 7 7 6 3 4 2 5 7 5 9 11 12 12 12 11 11 11 6 5 6 4 4 5 5 5 6 6 3 2 4 3 3 3 4 4 5 3 3 4 2 5 10 8 9 9 9 5 3 5 5 8 2 11 10 13 13 15 15 15 16 16 16 17
22 21 21 21 21 22 22 22 20 19 18 14 14 13 13 16 14 13 13 12 11 11 10 9 8 7 6 2 6 5 2 5 4 2 7 10 11 11 10 9 8 8 7 7 7 5 6 6 6 4 4 5 1 4 1 3 2 3 3 7 5 2 2 3 2 6 9 9 7 8 8 6 7 1 7 7 9 8 9 11 13 13 14 14 15 15 16 18
22 21 21 21 22 22 23 23 22 22 20 18 15 14 13 15 16 15 15 14 13 11 10 9 8 6 5 5 6 3 3 2 2 3 5 9 11 11 10 8 9 7 7 8 7 7 6 5 6 3 4 5 2 5 5 2 1 4 5 4 5 5 2 2 3 5 8 8 8 7 5 7 5 6 7 10 11 9 9 11 11 13 14 14 14 14 16 17
21 21 21 21 21 23 23 23 22 22 21 20 15 12 11 12 15 15 15 14 13 10 9 10 9 8 4 5 3 3 5 4 2 3 7 9 10 9 9 7 9 7 7 8 7 7 7 6 6 4 5 5 2 3 3 4 2 3 1 5 6 4 2 1 3 5 6 6 7 7 7 7 4 7 5 9 9 10 11 11 12 13 13 13 14 15 15 16
21 21 20 20 21 21 23 22 22 22 22 21 19 15 11 10 14 15 14 14 12 10 9 9 10 8 5 3 3 5 3 3 6 4 8 7 9 6 7 5 6 6 4 5 7 7 8 4 7 6 4 4 3 4 4 8 5 4 3 7 3 1 2 1 3 4 4 5 7 7 8 2 2 5 5 9 10 12 12 13 13 13 13 13 14 15 15 16
21 21 20 21 20 20 21 22 22 23 22 22 20 18 12 12 15 14 13 12 11 10 8 9 8 9 7 5 3 2 4 3 3 6 9 9 6 5 7 3 7 5 3 2 3 5 7 4 4 4 3 3 3 5 2 5 3 0 5 6 2 2 2 2 2 2 0 3 9 7 5 5 4 5 9 8 10 12 13 13 13 13 13 12 13 14 14 15
21 21 20 21 22 21 22 23 23 22 23 22 20 20 12 14 14 14 12 10 10 9 8 7 9 5 5 5 3 3 3 4 2 4 10 8 7 4 5 5 7 6 4 3 4 6 4 4 4 3 4 6 2 5 2 5 2 2 6 6 6 3 3 5 5 6 3 5 12 9 7 2 6 6 6 8 10 12 13 14 12 13 13 13 12 12 13 14
22 20 20 21 21 21 23 23 23 23 23 24 23 19 15 15 13 12 10 8 8 10 8 7 7 4 2 4 5 1 2 2 3 5 10 8 5 5 6 6 6 5 5 2 4 4 3 3 2 1 2 3 3 3 4 1 4 6 6 10 8 6 6 6 6 7 5 2 10 10 7 2 6 5 5 7 10 11 13 13 13 13 12 11 12 12 12 13
21 20 20 21 20 21 23 23 23 23 22 24 24 21 19 15 13 11 8 8 7 7 8 8 7 3 3 4 5 4 2 3 3 5 7 8 3 4 4 4 6 5 5 4 3 2 2 3 3 4 2 1 3 4 4 1 4 5 5 5 8 10 8 5 7 8 6 3 7 7 10 7 5 5 3 7 9 11 13 13 12 12 10 10 10 10 11 12
20 19 20 20 20 21 22 23 23 23 24 24 23 24 21 15 12 9 7 6 2 6 7 9 8 2 4 3 5 4 2 4 3 5 7 4 1 1 2 3 3 4 4 4 2 1 2 2 4 5 1 3 4 3 3 2 5 4 5 4 3 8 6 5 3 7 6 2 6 8 5 3 8 5 3 6 10 12 12 11 10 8 9 8 9 9 10 12
19 19 19 19 20 21 21 22 23 23 23 23 23 23 21 14 10 7 6 6 4 2 6 8 5 4 1 5 3 2 3 3 3 4 8 8 6 0 2 1 1 2 2 2 2 1 2 1 4 4 2 5 2 3 4 4 4 4 5 2 1 4 5 7 1 6 7 2 5 8 6 6 5 3 6 14 11 12 12 10 9 9 8 8 7 8 9 11
19 18 18 19 20 20 21 22 23 23 23 24 24 22 22 13 8 5 5 4 2 2 6 6 3 3 2 3 2 4 3 1 1 7 5 9 9 3 2 7 2 2 1 2 0 1 2 3 3 5 3 4 4 5 5 6 5 4 3 4 3 2 4 8 2 4 6 4 5 11 5 5 9 5 16 13 11 13 12 10 9 8 8 7 7 8 9 10
18 17 18 19 19 20 20 21 22 23 24 23 24 25 21 9 3 2 3 3 1 4 3 2 2 3 2 4 2 1 2 3 6 6 2 5 6 5 8 6 5 3 3 2 1 1 4 4 5 3 4 5 6 5 7 5 6 3 0 3 3 3 3 2 7 5 5 6 3 3 6 8 5 8 14 10 12 12 12 9 8 9 8 7 7 8 8 9
18 17 18 19 19 20 20 21 22 24 23 24 25 24 18 3 2 3 2 3 1 1 1 1 2 1 4 3 1 3 2 3 2 3 7 1 5 6 7 6 3 4 3 3 3 2 4 5 2 3 5 3 4 5 6 4 4 2 5 4 4 6 4 5 5 0 2 5 7 4 6 7 10 7 13 11 11 12 11 10 8 8 6 6 7 8 10 10
16 16 17 19 20 20 20 21 22 24 24 25 23 19 17 7 5 1 4 5 1 2 2 2 1 1 3 3 2 3 2 3 6 6 7 3 1 6 4 5 2 4 4 5 5 6 3 4 5 6 3 2 5 6 3 5 3 5 6 6 6 6 8 9 9 5 3 2 6 6 6 9 10 7 10 12 11 11 11 9 8 7 5 7 7 8 10 10
15 16 17 18 19 19 20 20 21 23 23 25 23 20 11 3 4 2 5 8 1 1 2 2 3 4 2 3 1 2 3 2 5 4 5 8 4 5 5 6 5 5 5 6 3 7 3 6 6 6 4 4 5 4 3 3 4 6 6 7 8 8 5 6 6 4 2 7 8 3 7 10 11 4 8 10 9 10 10 9 8 4 5 6 7 7 8 9
15 16 17 18 18 19 20 20 21 22 21 15 10 7 2 8 4 4 7 8 7 2 6 9 1 3 4 0 3 6 3 1 2 3 4 0 6 6 7 4 5 6 5 6 9 2 3 5 6 4 3 4 5 2 4 4 5 6 7 8 8 10 9 7 3 5 3 5 6 9 11 12 13 3 10 11 10 10 9 9 6 6 5 7 8 8 8 8
14 16 17 17 17 18 19 20 20 19 21 10 10 7 6 6 7 8 9 2 2 2 4 2 2 5 4 3 3 7 1 3 2 2 4 2 3 6 1 6 6 9 4 3 6 2 2 6 2 3 3 5 5 3 3 6 6 7 7 8 8 7 10 3 7 5 1 3 9 10 12 14 14 10 11 11 10 9 9 8 7 6 7 6 7 7 7 8
14 15 16 17 17 17 18 18 17 17 18 5 8 6 4 4 3 3 2 6 2 4 2 3 1 3 2 2 2 1 1 2 6 1 2 7 2 6 5 6 7 9 9 7 5 4 6 9 2 3 3 1 3 3 3 6 8 7 7 7 7 7 7 9 2 5 4 8 8 10 12 12 12 14 10 9 9 8 7 7 7 6 6 4 5 7 8 11
13 15 16 17 17 16 17 17 13 17 6 5 6 5 4 3 2 1 3 5 10 1 2 2 4 3 4 2 1 3 2 3 1 3 7 9 3 2 6 5 9 9 10 4 7 7 6 1 4 3 1 3 4 5 5 7 8 7 6 6 7 7 6 2 3 5 9 9 10 9 12 11 2 11 10 8 9 10 8 8 7 4 6 5 7 7 10 12
13 14 15 16 17 16 16 15 15 6 7 8 8 5 2 1 2 2 3 5 7 3 2 1 2 2 1 0 2 3 4 2 2 3 5 6 4 4 4 5 11 9 8 3 6 8 10 8 3 1 2 3 6 6 7 7 8 7 7 7 8 5 5 6 9 12 10 4 6 7 11 11 9 9 9 8 8 9 9 8 6 6 4 3 4 7 10 11
12 14 14 16 17 17 16 13 2 3 3 1 5 2 1 1 3 2 3 5 4 4 2 2 2 2 1 1 2 3 2 0 2 4 4 5 5 5 3 2 3 8 6 3 6 9 12 2 3 1 2 3 5 8 6 2 8 8 2 4 5 5 7 8 11 13 8 7 6 12 10 5 10 14 13 11 9 9 7 4 4 4 4 6 8 9 9 9
12 14 14 15 17 19 14 3 3 1 1 3 2 2 1 0 3 3 3 4 6 3 2 4 2 2 1 2 1 1 1 2 3 3 2 3 2 2 5 4 1 9 6 4 8 6 6 2 1 3 2 4 5 7 5 2 8 7 2 3 4 5 6 9 11 9 9 8 7 9 7 11 3 9 14 12 13 11 7 6 5 4 4 6 7 8 9 12
11 13 13 14 16 19 5 2 2 1 2 2 1 1 0 1 0 3 3 3 6 4 2 3 2 1 2 3 2 0 4 3 2 3 2 1 1 1 4 6 3 3 2 3 3 3 2 0 1 2 4 5 7 9 3 2 4 7 5 5 6 6 8 9 10 8 11 11 12 10 9 12 9 8 11 17 14 11 7 5 5 4 4 7 9 10 13 14
10 11 12 13 13 11 3 3 2 1 3 3 2 1 1 1 2 3 3 4 2 2 2 4 2 1 2 2 0 4 4 2 4 3 2 2 3 3 4 10 9 10 1 1 9 3 3 1 3 4 2 5 8 3 3 2 4 4 6 4 7 7 9 10 8 10 11 12 12 5 7 8 8 6 11 14 12 13 6 3 3 4 7 10 12 12 13 15
8 10 11 11 12 9 6 3 4 2 3 2 1 1 0 2 3 3 2 5 2 2 2 2 1 2 1 4 4 6 4 3 6 3 1 2 1 3 6 2 3 4 1 6 11 4 2 4 4 2 2 7 3 4 4 1 6 3 7 5 7 8 8 9 9 11 11 8 13 9 8 9 11 5 9 11 10 9 2 2 4 6 9 11 11 13 15 16
7 8 10 11 8 3 1 1 2 3 2 2 1 2 2 3 3 4 1 6 3 3 1 3 3 1 2 5 5 6 7 4 1 2 4 2 3 3 1 1 5 4 7 7 9 8 1 1 1 3 5 3 2 3 3 3 3 7 7 8 8 8 9 9 8 9 7 9 12 14 12 11 8 8 9 8 3 4 1 3 3 7 9 11 11 14 16 16
5 6 8 10 3 4 3 2 4 3 2 2 3 3 3 3 4 3 5 1 2 1 1 3 1 1 2 4 6 3 5 3 3 2 5 3 4 5 3 3 4 4 4 5 6 8 5 2 3 0 3 3 0 2 3 3 4 4 4 6 9 8 6 8 5 4 5 9 6 5 6 3 7 2 5 5 7 5 1 3 5 7 9 11 12 14 15 15
3 4 5 5 3 3 3 3 4 4 3 2 3 2 3 5 5 7 5 6 4 3 3 3 2 1 1 1 2 6 6 7 4 3 5 1 4 5 2 5 3 7 6 3 2 4 4 8 1 2 1 3 4 4 5 4 6 5 5 6 5 8 7 6 4 4 8 7 4 8 5 5 13 10 4 9 7 4 3 2 4 7 10 12 14 17 15 15
1 2 2 0 1 2 1 3 4 4 5 2 2 4 5 4 6 8 6 3 2 1 3 1 2 0 1 3 9 4 4 5 3 2 2 1 3 5 3 3 3 3 9 4 8 8 3 5 5 5 3 4 4 5 4 4 6 5 5 2 2 7 5 10 7 6 8 3 7 2 8 10 12 14 18 8 6 5 3 4 6 9 12 13 15 15 16 15
3 2 2 3 1 2 1 2 3 5 4 2 2 5 5 5 7 6 2 3 1 2 2 2 1 3 4 6 7 3 8 5 4 1 1 3 4 6 3 4 6 4 4 6 8 4 9 6 7 8 3 6 6 5 4 4 2 1 4 2 3 5 4 7 4 8 7 7 5 4 6 4 5 5 14 11 5 4 4 3 6 9 10 11 13 14 16 17
4 3 1 2 2 3 4 4 4 5 2 2 4 7 7 10 4 5 5 4 2 2 3 4 3 4 8 10 4 2 6 3 3 2 5 6 7 6 8 6 7 4 4 4 3 1 10 9 3 1 2 1 6 1 1 3 5 4 1 2 2 7 5 10 6 9 8 12 11 4 5 1 5 8 9 9 7 5 3 4 6 10 11 13 13 14 15 16
4 2 2 3 3 4 6 5 5 4 3 3 6 7 13 7 3 4 2 3 3 3 0 5 7 7 8 7 5 4 3 5 3 2 6 10 9 8 3 4 8 13 9 7 0 4 1 7 6 5 2 2 2 1 1 2 4 4 3 3 0 7 1 7 9 6 3 5 13 5 9 9 2 8 11 10 5 3 2 5 8 11 13 14 13 14 16 17
2 1 3 3 4 5 7 6 5 4 2 5 8 11 10 5 11 6 3 4 0 1 2 6 3 5 2 3 3 7 4 2 6 3 5 4 8 14 6 5 3 10 6 3 6 3 6 5 6 6 6 4 0 2 3 4 2 3 4 2 3 5 4 2 6 4 5 10 9 5 8 10 7 7 10 9 2 3 6 8 11 12 12 13 13 14 16 18
2 2 3 7 4 9 8 7 7 4 3 7 12 15 2 9 4 9 5 5 1 3 5 6 5 5 6 7 7 5 6 3 1 6 7 5 6 6 7 5 7 6 7 2 4 1 4 8 5 3 3 3 1 3 6 5 3 4 1 4 2 3 2 4 3 4 6 10 8 8 9 10 9 10 5 9 5 7 9 11 11 13 13 14 15 17 18 19
0 1 4 5 7 9 8 8 5 4 6 8 11 11 10 14 9 6 6 5 1 4 6 9 8 5 7 8 6 3 9 7 4 7 5 5 7 7 9 7 5 5 4 6 3 1 2 4 2 2 2 3 3 5 7 6 5 4 2 3 2 0 5 6 5 2 3 11 8 7 2 10 8 7 4 4 6 6 9 10 11 13 14 14 15 17 19 20
3 1 5 5 7 8 8 7 3 4 7 13 10 13 1 6 9 6 6 9 5 7 8 8 10 11 10 11 6 9 6 11 9 9 8 4 8 8 9 6 7 8 7 3 2 1 3 3 7 3 4 4 4 9 9 7 6 6 7 8 3 3 1 2 4 3 4 6 7 12 14 2 5 5 2 4 4 5 9 11 11 12 13 15 17 18 18 19
1 2 1 5 8 8 7 5 6 10 11 10 12 12 4 6 6 8 10 9 6 10 10 8 8 11 7 6 11 8 8 9 9 10 9 9 9 8 8 9 10 9 7 4 1 4 1 5 7 2 4 8 6 6 1 5 2 8 8 9 8 6 5 7 8 5 1 6 7 6 15 11 4 3 3 6 2 5 9 11 12 13 15 16 17 20 21 20
4 5 2 9 10 11 8 7 7 6 7 13 13 10 8 5 7 7 7 6 7 6 3 6 10 11 11 12 9 7 8 10 11 8 8 11 8 11 3 7 10 15 10 6 7 1 2 1 2 9 7 7 2 1 4 3 3 4 4 7 6 8 5 6 8 3 2 7 6 10 10 17 7 1 5 4 2 6 9 11 12 13 14 16 17 19 19 20
6 5 4 7 8 10 5 8 6 7 11 8 2 6 7 4 6 7 10 7 4 6 5 8 10 8 10 8 9 12 11 10 10 11 9 8 8 5 5 8 13 10 1 2 5 4 2 1 2 9 4 4 3 4 1 1 1 5 7 7 7 10 10 8 7 4 6 6 6 7 13 10 3 5 4 3 5 8 8 11 12 13 14 16 19 21 21 22
4 5 3 4 6 6 6 12 12 13 11 7 9 13 8 8 9 9 12 12 9 6 11 8 3 14 9 8 10 13 7 7 8 14 10 8 3 4 5 10 12 6 6 5 5 6 4 5 7 3 5 5 4 4 5 4 6 7 7 9 7 4 3 4 1 1 4 10 10 8 18 11 2 6 6 7 7 12 12 11 11 13 14 16 19 20 19 21
2 1 2 4 4 5 10 8 12 11 11 14 12 16 11 5 9 16 13 13 12 13 3 8 10 5 8 6 10 9 10 16 5 6 1 2 2 2 3 2 6 4 4 1 2 1 3 5 6 7 9 8 7 5 5 7 7 6 8 8 10 11 10 4 5 6 10 5 11 14 16 15 8 5 10 12 14 13 13 12 11 12 15 17 18 19 20 20
6 7 5 3 6 5 7 4 4 9 14 14 17 17 13 16 8 10 14 18 16 13 12 3 2 7 9 5 10 12 11 11 13 3 1 3 2 1 3 2 1 2 4 4 3 1 2 3 8 10 10 12 8 2 0 5 4 6 7 10 12 10 10 7 2 7 12 10 15 16 14 18 16 14 17 17 12 14 13 11 13 14 15 17 19 18 18 19
2 9 7 5 4 9 8 8 9 7 11 10 12 7 17 18 11 6 16 10 15 15 7 11 6 6 8 9 14 12 12 10 11 9 10 3 2 2 3 3 2 1 4 2 2 2 1 5 11 12 15 12 8 6 3 5 8 9 8 12 14 14 11 12 11 12 7 6 19 13 15 16 17 16 16 13 15 14 12 11 14 14 16 18 19 20 21 20
9 3 8 9 8 7 13 13 14 12 14 9 17 10 15 15 13 13 10 13 5 11 9 6 12 19 15 15 6 7 10 12 7 15 6 2 5 3 2 3 1 2 4 1 2 4 4 6 7 10 15 13 11 11 5 6 8 9 12 13 16 15 12 15 17 17 10 13 19 10 12 14 16 16 15 15 15 12 11 13 14 16 17 20 21 21 21 20
8 3 3 8 15 14 12 10 17 21 22 21 14 17 22 21 23 17 7 4 7 7 15 10 19 19 19 17 12 12 9 3 9 11 10 4 6 5 3 2 6 3 4 2 2 2 1 8 5 7 11 12 10 10 7 10 10 13 14 14 16 16 16 20 21 20 21 20 20 18 20 23 18 19 16 16 11 8 9 10 13 16 19 20 20 20 20 20
11 10 5 5 7 5 9 10 13 17 18 19 16 20 18 19 25 18 9 11 7 10 12 21 21 7 17 19 18 17 18 16 17 14 6 8 1 4 5 5 4 6 5 5 4 4 5 4 6 3 6 9 9 8 10 10 12 18 18 17 17 15 18 20 18 20 20 23 23 24 25 23 18 18 16 11 6 8 9 12 15 16 18 20 20 20 20 20
5 7 5 7 9 10 7 9 9 13 14 15 21 16 12 20 27 20 16 14 20 12 15 24 20 13 11 15 19 25 22 14 8 8 10 15 13 8 9 4 11 8 9 4 3 3 5 4 4 0 4 8 4 9 11 12 15 19 22 17 16 18 20 19 19 17 19 20 21 20 17 16 14 12 9 9 9 9 11 12 13 14 18 19 19 19 19 20
9 4 5 5 10 11 14 13 9 7 18 17 13 16 15 22 23 12 16 15 21 20 12 15 15 12 14 19 23 23 9 8 10 7 7 6 6 3 2 5 10 10 8 7 5 5 4 4 2 2 4 8 2 3 2 7 12 16 22 19 21 22 21 16 15 15 19 18 16 14 16 12 11 9 11 11 10 10 10 11 12 14 16 18 18 17 18 19
Wind_Direction
354 348 343 345 344 342 341 338 337 337 335 333 330 328 331 335 333 326 324 321 323 321 319 322 324 325 328 322 328 332 330 280 73 48 49 40 329 310 310 314 318 319 317 299 303 268 251 223 300 36 241 254 129 254 87 187 337 262 238 282 240 53 97 55 3 317 325 297 317 350 3 354 331 350 18 311 195 219 315 47 30 33 26 15 41 31 29 32
350 343 343 343 343 342 339 336 336 334 331 330 330 329 335 337 335 325 318 316 318 319 319 323 321 319 326 315 319 341 316 277 68 60 58 344 325 323 321 321 326 329 312 321 6 345 340 356 348 323 298 270 123 324 213 115 275 273 301 267 66 43 67 346 46 315 302 297 328 333 2 13 337 333 12 343 23 46 39 27 12 1 2 12 38 34 33 27
347 345 345 345 344 342 338 337 335 337 334 327 327 337 337 334 330 329 321 318 321 323 318 321 318 314 306 311 308 323 297 239 51 39 39 12 343 333 332 326 327 319 318 333 349 338 346 333 328 323 310 293 163 40 252 89 278 66 305 287 91 50 86 68 95 301 285 304 313 332 344 325 350 337 343 348 336 54 45 12 3 2 356 2 30 32 28 30
348 346 346 345 343 341 339 337 334 334 336 339 333 335 341 347 343 332 326 321 318 324 320 315 313 302 296 296 298 244 225 257 57 356 23 354 341 332 331 325 330 309 285 275 310 314 310 282 295 312 316 264 127 210 245 94 278 64 256 354 89 43 183 118 305 276 292 307 317 327 323 310 15 352 339 354 316 52 38 24 6 0 3 23 34 30 25 28
348 346 346 344 343 341 340 339 335 333 335 334 336 338 342 346 342 337 329 321 321 325 319 313 307 304 298 278 153 177 231 245 57 338 18 349 332 327 322 316 317 315 300 299 270 270 304 291 311 282 259 324 309 241 153 94 43 302 295 77 64 80 157 63 297 288 297 308 303 309 315 359 317 199 38 22 52 42 21 19 15 17 32 37 36 34 32 29
347 345 345 343 342 341 341 338 337 335 333 336 340 336 340 346 343 337 335 330 328 328 320 313 305 304 295 185 180 193 258 309 5 346 342 340 326 315 309 301 295 293 289 297 313 316 324 328 317 322 312 297 343 301 75 21 49 298 133 71 63 46 340 77 261 285 294 312 326 324 354 308 319 74 49 62 51 44 53 34 36 47 45 43 44 38 36 32
346 343 341 342 340 341 340 339 337 335 332 333 334 336 334 335 340 337 333 329 328 326 323 312 305 298 301 215 206 226 84 104 298 4 357 327 312 299 300 282 276 311 307 333 347 341 348 320 326 357 308 265 168 284 16 326 192 257 303 88 97 14 32 255 295 292 298 313 314 314 311 289 317 101 68 68 42 54 68 54 58 60 53 44 43 41 37 32
346 342 340 340 339 339 338 337 334 334 332 331 330 338 337 331 340 335 333 327 325 327 316 312 304 302 274 218 224 104 74 36 6 20 342 323 304 316 303 253 322 317 338 6 351 351 334 345 348 327 247 326 45 283 21 313 224 233 222 64 104 293 123 233 266 278 300 304 295 307 284 348 18 93 112 50 47 79 70 69 71 65 58 49 42 36 33 30
347 342 338 340 339 337 336 336 334 332 331 329 330 331 338 340 344 337 331 326 323 321 316 306 306 300 281 272 282 221 64 5 33 341 341 336 319 303 329 15 342 328 340 339 346 321 303 19 337 24 353 321 68 303 327 322 149 262 340 335 309 259 188 189 190 215 292 329 330 319 1 86 93 154 73 46 67 86 85 86 77 70 61 52 44 34 31 29
346 342 338 338 340 338 338 335 331 329 329 328 325 328 338 342 341 337 330 324 319 313 310 313 309 317 269 239 212 242 78 4 17 353 349 331 303 296 34 13 356 344 330 18 331 354 18 357 343 353 305 257 281 283 344 246 10 320 312 310 282 251 163 171 171 170 154 12 344 343 333 139 157 233 109 72 81 100 93 84 74 66 60 53 45 38 30 27
344 340 338 337 338 338 337 334 331 329 328 326 324 324 335 341 339 335 330 319 308 312 307 304 326 306 233 221 260 72 62 11 31 353 350 332 343 20 15 352 354 345 334 315 36 353 346 295 341 252 226 48 248 237 212 5 338 304 317 292 240 180 154 153 173 172 191 27 340 332 316 209 166 212 64 50 76 94 85 76 70 65 58 49 42 39 30 26
343 339 338 336 336 337 336 333 331 329 327 325 322 321 333 340 337 334 324 314 298 305 317 316 319 274 273 73 53 58 27 8 1 346 343 354 14 5 326 354 351 348 335 328 64 16 313 320 255 242 349 353 274 287 192 85 269 293 305 296 114 142 151 189 180 180 220 6 330 319 282 206 196 121 42 45 81 89 79 73 68 65 61 51 41 37 34 26
340 337 336 336 336 336 334 333 331 328 327 324 320 320 326 339 332 329 317 302 299 315 323 324 322 305 287 97 55 76 9 351 359 324 320 1 16 350 337 358 8 360 349 325 10 22 314 273 250 245 276 278 284 323 80 224 253 255 233 270 219 151 157 170 153 178 190 46 312 317 347 351 147 128 126 122 111 98 86 80 74 72 64 51 39 34 30 29
339 334 334 334 334 334 333 332 330 327 323 321 317 314 325 336 329 315 292 278 304 309 316 320 312 294 276 84 91 34 11 354 298 300 350 318 266 318 326 45 1 350 353 342 53 341 278 284 252 285 352 265 3 72 238 189 180 229 118 280 271 235 159 168 175 173 209 71 277 348 324 291 347 108 47 110 118 103 96 89 84 75 63 51 42 29 28 27
338 332 331 333 333 333 335 333 330 326 323 319 315 312 318 332 326 318 277 244 345 297 289 305 275 280 126 81 93 96 123 194 341 13 359 343 347 293 343 346 293 15 355 39 287 243 279 252 255 231 222 168 260 249 259 202 186 194 201 186 152 39 105 131 28 66 327 21 18 344 288 322 313 0 99 113 117 107 101 98 89 74 61 50 38 27 21 19
335 331 330 330 332 335 336 334 330 326 324 316 315 313 310 325 323 310 292 348 181 312 280 262 14 327 151 148 122 207 235 341 358 356 350 332 353 321 325 307 294 265 227 171 165 224 240 239 260 341 299 185 246 309 300 281 170 214 239 327 327 340 312 247 126 117 44 345 6 33 296 302 295 341 112 110 115 112 110 102 92 76 61 48 37 29 16 10
336 331 329 328 333 336 336 335 329 326 319 316 316 307 310 338 234 195 285 204 250 209 291 350 150 316 273 64 312 223 35 20 22 317 335 358 319 329 320 272 257 276 187 219 202 243 221 238 125 247 232 285 333 309 316 290 284 230 21 321 311 291 320 301 149 261 38 25 319 267 239 267 300 62 127 120 119 116 113 105 93 83 64 44 40 22 15 11
333 331 330 329 333 336 337 336 330 326 321 318 313 293 297 306 150 208 249 236 82 341 3 328 293 187 120 246 196 37 323 299 346 316 283 274 309 336 336 311 267 296 270 238 181 271 140 273 179 300 220 217 8 343 331 306 330 299 318 317 299 303 279 275 282 135 228 334 283 266 240 289 308 105 124 129 121 115 112 108 96 89 71 57 31 18 13 5
328 329 330 332 333 336 337 336 329 325 323 314 297 289 256 188 169 321 30 347 280 333 219 57 335 248 13 61 172 319 337 345 284 291 332 360 319 290 277 250 260 285 290 300 72 329 354 284 215 258 281 1 353 341 286 312 304 280 290 285 282 275 268 281 295 99 41 311 286 263 296 301 300 132 132 129 125 113 109 111 102 83 77 53 30 17 11 2
327 327 330 332 334 335 338 338 328 326 327 327 332 323 332 3 346 183 26 21 67 49 284 311 259 287 243 121 349 325 224 66 263 164 350 27 306 314 274 264 255 224 266 342 321 333 318 306 302 310 338 344 327 303 308 288 293 286 264 260 272 275 276 265 220 126 86 308 275 298 295 299 298 152 148 137 128 118 115 110 98 78 64 38 28 6 3 2
326 325 327 331 335 336 337 335 328 322 324 317 319 12 28 346 333 340 336 331 28 45 310 303 318 293 333 354 328 354 353 186 226 324 13 288 252 302 36 301 308 318 28 333 282 344 263 283 288 42 9 326 309 297 281 286 261 273 284 277 281 287 283 349 298 120 149 360 293 293 304 302 302 145 150 144 137 123 118 113 97 77 50 37 19 1 360 1
322 324 326 328 334 337 337 335 325 318 313 298 27 58 82 76 32 348 306 300 189 136 222 252 1 254 212 247 82 336 158 272 189 340 125 325 319 313 18 320 325 317 335 318 274 270 294 289 80 72 352 309 249 265 263 284 291 285 276 288 288 287 351 301 154 131 321 307 293 311 302 300 296 152 148 154 132 112 101 99 86 66 40 39 6 7 3 0
319 320 325 328 332 335 337 327 328 311 337 12 46 77 69 66 1 355 290 252 269 182 218 209 207 199 155 110 118 198 250 251 313 54 355 338 301 42 312 331 337 313 307 283 321 316 299 321 91 24 98 247 243 229 280 281 265 264 274 273 287 327 347 293 177 359 319 293 301 321 294 291 154 149 150 137 133 119 115 106 102 73 49 23 15 17 2 0
316 320 323 328 331 333 331 329 303 294 44 62 68 60 74 357 318 261 249 264 318 157 242 53 323 317 94 262 121 276 297 82 240 69 39 350 349 7 277 3 320 306 297 22 312 283 275 316 75 111 177 256 288 295 274 286 290 297 279 270 289 325 324 307 303 312 300 291 59 329 297 282 159 169 158 146 136 143 136 128 122 100 65 40 31 20 9 358
315 320 324 329 331 330 330 317 336 34 275 87 73 129 14 347 321 324 271 272 204 225 87 198 208 256 92 174 206 285 93 152 251 24 24 355 341 274 9 332 270 301 327 32 304 272 266 32 24 183 244 269 288 286 290 328 291 298 37 33 6 333 311 310 310 324 315 305 118 15 323 298 160 186 175 153 165 161 143 143 120 95 56 30 19 8 4 352
317 319 326 333 333 328 316 283 82 9 22 54 48 129 357 357 308 293 286 275 282 110 237 164 200 130 299 143 89 19 359 236 58 42 42 29 297 305 318 267 127 301 337 318 302 290 310 71 313 310 253 290 278 277 278 59 288 292 20 353 11 317 309 309 321 330 302 308 308 349 281 283 249 237 164 171 173 158 166 145 118 78 48 32 17 1 360 355
315 319 327 336 339 334 300 5 59 212 266 115 150 110 159 280 157 247 280 220 248 116 176 36 250 88 314 48 324 44 261 102 110 113 152 352 338 215 282 297 194 188 39 327 296 255 130 139 102 268 293 277 289 278 77 334 321 280 52 327 351 313 311 316 310 290 282 292 291 272 245 268 281 271 163 169 168 167 167 136 101 60 29 21 6 1 2 360
312 318 326 336 340 349 21 308 263 294 40 65 100 49 292 221 206 230 246 313 256 115 123 169 37 23 296 90 40 266 359 5 249 132 350 53 270 191 224 293 295 306 104 206 273 45 330 359 266 263 264 280 275 1 50 312 259 328 360 5 310 310 299 291 289 288 290 304 288 262 229 255 259 249 156 164 174 177 176 149 75 38 18 8 4 3 0 356
308 316 326 335 328 307 300 324 311 0 81 87 131 279 69 191 232 298 303 270 87 138 358 105 313 195 195 157 235 228 262 155 282 69 179 242 31 312 277 9 359 302 232 235 262 279 47 34 29 329 324 274 29 48 51 38 251 47 343 290 261 247 253 263 277 290 291 288 273 253 227 248 265 232 182 185 211 205 171 52 33 19 12 6 360 355 357 353
305 318 328 337 310 231 225 197 61 69 87 77 58 204 170 200 233 231 242 250 71 195 77 69 245 51 341 275 233 178 232 177 229 116 182 259 102 215 112 16 271 262 260 237 244 266 94 143 240 234 268 337 350 69 5 37 341 312 280 286 281 268 270 268 273 280 297 265 261 253 229 227 272 262 252 224 179 146 16 344 9 5 6 1 359 1 352 347
299 322 337 326 331 15 312 223 108 136 86 124 124 163 211 230 260 297 238 228 29 102 85 178 113 157 279 298 288 165 266 254 223 206 243 169 194 203 203 221 158 249 238 249 245 233 226 191 211 189 0 261 233 224 182 256 282 291 298 300 305 281 271 273 251 260 255 268 286 87 137 229 241 159 137 120 104 96 337 348 341 358 357 356 360 354 351 341
290 335 350 333 25 309 309 22 110 118 134 128 202 212 238 272 185 211 249 98 262 133 204 108 82 344 36 50 230 265 288 285 216 229 277 8 289 277 236 278 348 306 284 224 258 97 239 217 120 107 212 210 201 257 202 196 226 250 271 270 318 304 318 288 163 237 220 250 99 110 91 284 242 245 110 144 142 141 88 40 12 0 353 357 357 352 341 333
240 57 27 303 306 256 40 61 115 127 122 178 238 240 250 243 261 211 237 139 252 50 151 337 97 213 74 282 263 258 102 263 135 170 116 189 245 240 82 231 82 245 278 332 314 291 281 82 149 161 158 201 235 219 212 227 188 229 239 259 317 300 299 279 277 274 271 259 106 236 27 280 274 265 246 158 135 96 93 63 19 9 359 356 351 343 335 331
132 180 252 66 311 326 75 149 133 141 126 193 254 225 227 238 241 50 269 210 323 151 93 148 177 171 202 261 286 114 284 175 238 189 204 205 183 253 192 191 168 219 212 293 279 288 293 269 187 174 195 130 210 242 348 346 6 253 48 282 259 259 269 287 307 294 297 286 297 329 356 250 322 34 103 119 120 106 74 49 14 7 354 354 344 335 332 328
144 197 266 228 244 222 201 186 157 173 211 250 231 221 233 240 254 255 226 217 144 187 167 129 257 259 260 227 215 193 225 287 160 178 218 208 242 233 250 184 193 203 215 266 243 348 225 250 90 359 42 165 193 124 272 345 274 143 331 52 235 243 249 257 297 307 306 306 303 192 207 220 288 107 118 137 129 127 103 21 357 357 349 349 339 334 331 327
191 175 166 245 201 159 176 170 168 169 227 229 225 223 225 224 275 124 270 50 90 243 108 215 214 260 251 261 141 185 125 240 126 196 244 213 235 255 151 156 181 185 191 204 191 275 220 251 116 124 258 175 82 126 191 209 235 121 158 212 103 31 285 280 298 270 31 276 259 184 257 256 153 181 157 160 171 190 41 356 356 348 347 339 335 333 327 326
255 125 250 164 196 157 165 164 166 178 219 236 227 239 238 252 246 252 166 204 242 7 301 300 256 187 294 286 224 186 166 193 231 214 281 115 255 210 205 178 109 181 229 218 253 230 253 287 159 154 200 129 35 328 272 296 330 104 227 186 96 97 77 243 277 306 280 265 268 172 220 268 266 282 157 183 154 308 339 351 349 340 338 333 332 329 328 325
181 230 281 270 167 148 159 162 163 202 239 224 234 240 205 246 166 228 100 116 170 161 246 227 253 158 262 246 267 155 151 222 222 157 269 184 282 105 169 169 181 197 172 331 232 14 59 286 182 217 97 108 179 188 234 175 272 259 29 20 199 259 300 191 113 263 271 263 290 271 273 261 242 252 154 219 266 331 338 339 335 334 332 334 332 329 327 327
138 346 269 125 117 146 149 160 185 207 200 227 231 250 231 235 240 194 177 182 123 164 235 229 242 209 229 255 257 146 165 254 227 225 276 223 230 158 185 144 175 161 108 130 213 100 282 241 317 65 28 138 191 192 236 182 154 104 47 251 41 287 231 225 222 279 274 273 304 266 226 270 237 265 131 275 326 327 328 333 331 327 332 333 332 329 329 330
178 138 227 120 154 139 151 174 167 202 214 224 221 232 104 226 214 197 189 192 204 198 233 251 220 255 241 252 246 266 237 227 240 256 214 226 261 144 174 170 160 155 143 234 218 53 230 175 266 112 326 108 236 192 223 211 185 184 196 227 154 207 199 307 286 174 227 268 262 292 291 250 101 102 165 284 317 338 336 328 326 328 329 331 330 329 327 324
284 269 206 154 148 151 147 181 187 199 217 234 241 244 192 225 202 202 207 203 244 215 250 244 229 226 245 263 251 213 247 248 231 235 231 251 233 269 166 162 136 132 126 82 231 212 167 210 231 169 210 208 212 31 27 8 261 205 198 215 197 197 209 220 258 145 187 229 250 251 262 269 166 147 301 321 357 333 329 327 326 329 327 327 330 329 328 326
175 229 173 152 158 164 180 178 211 206 225 223 227 207 243 198 249 203 180 201 222 237 194 271 248 251 251 246 259 258 258 259 249 234 228 238 215 223 72 157 148 147 152 183 195 223 163 351 242 242 224 232 94 40 358 291 329 275 233 227 221 229 174 211 247 214 182 233 233 253 288 274 123 286 276 259 267 325 328 331 330 327 325 325 324 323 321 322
198 232 48 174 163 180 192 236 196 204 226 237 10 260 225 210 226 198 198 176 223 212 239 224 224 222 235 231 245 252 239 257 241 230 238 225 241 56 142 162 141 160 70 92 44 210 36 161 266 258 255 92 166 115 191 36 226 267 247 227 232 218 200 205 229 288 278 261 241 250 245 259 94 209 201 198 289 314 323 333 331 326 323 323 323 322 324 324
196 211 156 193 183 199 200 214 218 222 231 228 219 244 208 238 211 204 214 191 189 190 218 221 246 215 252 202 220 242 205 265 226 229 247 214 223 99 161 161 155 172 174 198 161 172 133 205 154 250 271 237 200 215 226 176 195 231 216 208 197 198 199 250 314 349 265 233 224 237 253 269 328 163 215 222 287 314 326 334 334 325 322 324 323 321 321 320
138 12 120 153 191 205 207 219 233 238 226 230 230 236 220 233 221 221 208 214 201 224 158 238 216 160 218 200 226 233 209 214 289 221 231 210 157 107 5 162 343 159 38 15 37 95 223 206 169 196 217 233 231 210 224 194 206 218 224 197 196 195 190 142 228 206 238 222 221 233 254 265 273 193 215 246 302 312 319 329 325 320 322 322 320 321 322 320
184 230 149 150 183 237 268 323 308 248 249 246 251 247 223 236 206 198 219 237 222 211 212 184 74 202 216 138 234 234 232 213 220 249 177 207 131 190 143 49 81 69 62 53 27 217 200 291 240 225 229 240 262 53 311 134 191 194 209 198 204 202 200 200 214 223 230 253 255 243 249 274 268 273 276 287 292 303 315 320 319 322 322 320 318 319 319 318
150 227 148 181 158 229 237 220 233 233 240 231 257 238 242 228 223 212 187 244 222 221 221 219 182 175 208 197 233 244 227 221 222 251 234 183 105 119 95 129 26 343 8 52 52 71 252 236 235 240 252 261 281 312 156 171 226 236 218 220 212 207 195 201 203 228 210 269 260 245 248 258 268 272 272 287 303 307 313 316 315 318 323 320 319 319 318 315
224 213 187 175 189 194 213 226 225 236 248 228 245 250 253 253 230 232 183 211 65 206 213 217 213 212 208 205 196 241 225 213 192 233 224 161 110 136 67 105 201 123 153 94 224 216 230 249 239 224 252 260 266 271 234 223 237 237 240 239 231 215 205 211 224 227 204 222 249 269 271 269 275 275 283 296 303 308 313 315 315 318 319 317 318 317 317 315
227 356 240 160 216 229 199 174 187 213 228 224 242 236 244 244 248 228 171 168 187 231 198 239 225 209 213 221 209 242 195 143 234 224 215 160 163 121 167 34 219 148 180 136 198 238 60 257 231 246 268 260 252 252 260 268 271 264 251 242 239 227 225 222 226 225 223 238 251 267 271 269 274 274 286 293 298 308 309 311 311 317 318 316 316 314 314 312
193 183 200 250 256 256 225 176 187 199 224 216 228 231 231 226 241 233 208 176 201 220 198 227 240 170 205 217 218 229 222 213 232 242 175 133 91 165 213 180 130 151 170 186 171 281 165 277 99 248 263 260 249 252 260 266 271 268 260 250 243 236 240 239 233 229 233 246 252 257 262 267 266 273 278 283 308 308 307 309 314 316 314 314 312 313 313 315
210 204 147 185 216 222 221 185 188 202 224 221 222 225 219 220 237 228 233 200 210 201 178 218 226 230 216 224 224 233 235 240 233 244 145 170 204 178 164 223 138 165 170 177 188 247 198 251 88 233 284 275 227 232 250 265 272 272 266 246 239 232 240 236 233 221 222 235 244 251 256 257 264 269 286 300 300 305 309 313 313 314 312 312 311 309 313 318
213 355 232 200 236 199 220 203 208 182 233 220 202 213 214 225 228 216 250 228 224 219 201 201 213 216 230 236 235 235 238 88 99 77 118 65 64 105 131 142 163 159 172 182 171 166 197 176 191 176 250 278 356 199 303 302 301 275 252 231 227 231 232 238 240 225 222 225 237 240 244 249 268 293 294 288 294 299 305 311 311 305 305 307 307 308 313 316